Regional Weather Roundup
Issued by NWS Wakefield, VA

Home | Current Version | Previous Version | Graphics & Text | Print | Product List | Glossary On
Versions: 1 2 3 4 5 6 7 8 9 10 11 12 13 14 15 16 17 18 19 20 21 22 23 24 25 26 27 28 29 30 31 32 33 34 35 36 37 38 39 40 41 42 43 44 45 46 47 48 49 50
000
ASUS41 KAKQ 271914
RWRAKQ

REGIONAL WEATHER ROUNDUP
NATIONAL WEATHER SERVICE WAKEFIELD VA
200 PM EST MON FEB 27 2017

Note: "fair" indicates few or no clouds below 12,000 feet with no
significant weather and/or obstructions to visibility. * = Denotes
station may not report precipitation (e.g., rain,snow,etc.),
thunder or fog.

VAZ042-051-052>054-056-272000-
NORTHERN VIRGINIA

CITY           SKY/WX    TMP DP  RH WIND       PRES   REMARKS
WASH NATIONAL  CLOUDY    53  28  38 S12       30.38F
DULLES         CLOUDY    52  22  30 S8        30.36F
FORT BELVOIR   CLOUDY    54  23  30 CALM      30.38F
QUANTICO       CLOUDY    54  32  43 SW9       30.39F
FREDERICKSBRG* CLOUDY    57  28  32 S8        30.37S
STAFFORD*      CLOUDY    55  22  27 CALM      30.42R
WARRENTON      CLOUDY    56  15  19 SW5       30.36S
CULPEPER*      CLOUDY    56  22  26 S8        30.37F
MANASSAS*      PTSUNNY   56  22  26 SW9       30.37F
LEESBURG*      CLOUDY    52  27  37 MISG      30.37S
WINCHESTER     CLOUDY    50  21  32 S6        30.34S
FRONT ROYAL*   CLOUDY    50  23  34 CALM      30.34R
LURAY*         CLOUDY    54  28  37 SW10G16   30.33S
$$

VAZ048-049-060>072-079>083-272000-
CENTRAL AND SOUTH CENTRAL VIRGINIA

CITY           SKY/WX    TMP DP  RH WIND       PRES   REMARKS
RICHMOND       CLOUDY    59  25  27 S14       30.37F
CHESTERFIELD*  FAIR      61  21  21 S10G20    30.39F
PETERSBURG*    CLOUDY    62  21  20 S7        30.37F
HANOVER        MOSUNNY   59  22  24 S9G17     30.38F
TAPPAHANNOCK*  MOSUNNY   58  17  20 SE6       30.38F
QUINTON*       NOT AVBL
CHARLOTTSVILLE MOSUNNY   57  22  25 S10       30.36S
GORDONSVILLE*  CLOUDY    56  24  28 SW12G17   30.36F
ORANGE*        CLOUDY    54  23  30 CALM      30.38S
LOUISA*        MOSUNNY   61  28  29 SW8       30.36R
BUMPASS*       NOT AVBL
FARMVILLE*     CLOUDY    60  26  27 S10       30.36R
CREWE*         NOT AVBL
FORT PICKETT*  NOT AVBL
CHASE CITY*    FAIR      60  21  22 S7        30.37S
CLARKSVILLE*   NOT AVBL
SOUTH HILL*    CLOUDY    60  25  26 S9        30.42S
LAWRENCEVILLE* FAIR      62  22  21 S8        30.36F
EMPORIA*       MOSUNNY   63  21  20 SE10      30.39F
$$

VAZ088>098-272000-
SOUTHEAST VIRGINIA

CITY           SKY/WX    TMP DP  RH WIND       PRES   REMARKS
NORFOLK        SUNNY     64  25  22 S9G16     30.38F
VIRGINIA BEACH MOSUNNY   59  26  28 SE12      30.39F
NORFOLK NAVAL  PTSUNNY   63  24  22 SE9       30.40F
WEST POINT*    MOSUNNY   61  29  29 SE9       30.39F
SALUDA*        NOT AVBL
NEWPORT NEWS   SUNNY     61  24  24 S10       30.39F
LANGLEY AFB    PTSUNNY   60  29  31 E8        30.39F
FORT EUSTIS    CLOUDY    64  28  26 S6        30.36F
WILLIAMSBURG*  SUNNY     64  30  27 SE7       30.39F
HR EXEC AP*    FAIR      64  25  22 SW13G18   30.37F
FRANKLIN*      SUNNY     62  23  22 S7        30.39F
US460-WAKEFLD  SUNNY     63  26  24 S8        30.38F
$$

VAZ020-022-025-037-045-272000-
WEST CENTRAL AND SOUTHWEST VIRGINIA

CITY           SKY/WX    TMP DP  RH WIND       PRES   REMARKS
STAUNTON*      CLOUDY    51  21  30 S6        30.34F
WAYNESBORO*    NOT AVBL
HOT SPRINGS VA CLOUDY    37  10  32 CALM      30.30S
LYNCHBURG      CLOUDY    57  22  25 S8        30.35F
DANVILLE       CLOUDY    61  26  26 S9G17     30.37S
SOUTH BOSTON*  NOT AVBL
MARTINSVILLE   PTSUNNY   60  24  25 S7        30.37F
ROANOKE        CLOUDY    54  24  31 E7        30.35F
BLACKSBURG     CLOUDY    54  22  28 SW10      30.34F
DUBLIN*        CLOUDY    55  21  27 S13G22    30.32F
MARION*        CLOUDY    55  19  24 S10G17    30.31F
HILLSVILLE*    CLOUDY    49  26  39 S13G22    30.32F
RICHLANDS*     CLOUDY    53  23  30 S6G32     30.25F
WISE*          CLOUDY    52  19  28 S12       30.24F
ABINGDON*      CLOUDY    58  26  29 W15       30.26F
$$

MDZ021>025-VAZ099-100-272000-
SOUTHERN MARYLAND AND THE DELMARVA PENINSULA

CITY           SKY/WX    TMP DP  RH WIND       PRES   REMARKS
PATUXENT RIVER CLOUDY    50  43  77 SE10      30.38F
BAY BRIDGE APT CLOUDY    52  34  50 S8        30.38F
LEONARDTOWN    CLOUDY    52  30  43 SE6       30.39F
DOVER          CLOUDY    55  32  41 S16G24    30.37F
GEORGETOWN     CLOUDY    58  26  29 SW9       30.40F
EASTON         PTSUNNY   54  28  37 SW10      30.42F
CAMBRIDGE      MOSUNNY   52  36  54 S12       30.40F
SALISBURY      CLOUDY    56  26  31 SW14      30.41F
OCEAN CITY     PTSUNNY   52  32  46 S9        30.43F
WALLOPS ISLAND PTSUNNY   54  33  45 S10       30.43F
ACCOMACK*      MOSUNNY   56  24  28 S13       30.42S
$$

NCZ012>017-030>032-272000-
NORTH CENTRAL AND EASTERN NORTH CAROLINA

CITY           SKY/WX    TMP DP  RH WIND       PRES   REMARKS
ROANOKE RAPIDS FAIR      63  27  25 S10G16    30.38F
RALEIGH        PTSUNNY   65  21  18 S10       30.39F
ELIZABETH CITY SUNNY     63  27  25 S10       30.40F
AHOSKIE*         N/A     64  25  22 S9        30.39F
EDENTON*       SUNNY     65  30  26 SE7       30.41F
CURRITUCK*     SUNNY     64  23  21 S6        30.41F
KILL DEVIL HLS NOT AVBL
MANTEO         SUNNY     61  40  45 SW6       30.42F
CAPE HATTERAS  CLOUDY    61  44  53 VRB7      30.42F
TARBORO*       NOT AVBL
GOLDSBORO      CLOUDY    67  29  24 S8        30.36F
WASHINGTON     SUNNY     64  33  32 S7        30.41F
GREENVILLE     SUNNY     68  32  26 S8        30.39F
NEW BERN       SUNNY     65  43  44 SE6       30.41F
WILMINGTON     MOSUNNY   65  46  50 E8        30.38F
$$

VAZ048-272000-
ELSEWHERE

CITY           SKY/WX    TMP DP  RH WIND       PRES   REMARKS
HARRISBURG PA  CLOUDY    51  29  42 SW13G20   30.35F
BALTIMORE      CLOUDY    55  22  27 SW7       30.36F
ANNAPOLIS      CLOUDY    52  32  46 S9        30.37F
ANDREWS AFB    CLOUDY    53  24  32 S9        30.36F
PHILADELPHIA   CLOUDY    54  27  35 SW14      30.39F
HENDERSON NC   SUNNY     60  22  23 SW8G16    30.37S
GREENSBORO     CLOUDY    60  28  29 S9        30.36F
ROCKY MOUNT    SUNNY     65  21  18 S7        30.38F
$$

VAZ100-272000-
MARINE

STATION/POSITION TIME  TEMP    WIND        PRES    WAVE   SWELL
                       AIR SEA DIR/SP/G            HT/PER HT/PER
                 (UTC) (F)     (DEG/KT/KT) (MB)    (FT/S) (FT/S)
CAPE MAY NJ      1824   48 44  170/ 12/ 17 1029.7
LEWES DE         1824   54 45  180/  8/ 11 1029.6
OCEAN-CITY-INLET 1824   47 45  210/ 10/ 13 1031.2
WACHAPREAGUE VA  1824   54 53  180/ 10/ 13 1030.3
THOMAS POINT MD  1900   47 44  160/ 11/ 12   N/A
GOOSES REEF MD   1840   46     160/ 12/ 14 1029.8F
COVE POINT MD    1824   45     180/ 12/ 13 1030.3
SOLOMONS ISLAND  1824   51 45  190/  6/  8   N/A
BISHOPS HEAD MD  1824   50 49  180/ 13/ 16 1030.4
PINEY POINT MD   1824          120/  6/  6   N/A
POTOMAC MD       1840   48     170/ 10/ 12 1028.8F
CAMBRIDGE MD     1824   52 47  200/  8/ 11 1029.1
LEWISETTA VA     1824   50 48   40/  4/  5 1029.3
RAPPAHANNOCK LGT 1824          190/ 11/ 12 1030.7
YORK RVR RNG VA  1824   50     140/ 12/ 13 1029.0
YORKTOWN VA      1824   58 49  180/  8/ 12 1029.1
JAMESTOWN VA     1840   58     110/  6/ 10   N/A
DOMINION TERM VA 1824   58     110/  7/  9 1029.4
KIPTOPEKE VA     1824      49  170/ 10/ 13   N/A
CHES BAY BRIDGE  1824   53 48  100/  8/ 10 1029.8
CAPE HENRY VA    1824   54     130/  7/ 12   N/A
WILLOUBY STN VA  1824   54      20/  4/  5 1030.5
S CRANEY ISL VA  1824   58     160/  6/  6 1029.5
CAPE HENRY BUOY  1842      50                N/A     2/ 9
OFFSHORE WE BUOY 1821      50                N/A     2/ 9
64NM E OF VA BCH 1850   52 50  360/  4/  6 1030.1F   3/ 8   3/ 8
DUCK PIER NC     1824   57 49  130/  5/  5 1029.8
44100 DUCK FRF   1835      51                N/A     2/ 9   2/11
44056 DUCK FRF   1830      53                N/A     2/ 8
OREGON INLET NC  1824   55 54   20/  6/  7 1030.4F
HATTERAS NC      1824   57 61   10/ 12/ 14 1030.0
DIAMOND SHLS NC  1850   64 71  130/ 12/ 14 1030.2F   4/ 8   3/ 8
CAPE LOOKOUT NC  1800   64     110/  4/  4 1029.5F
$$



USA.gov is the U.S. government's official web portal to all federal, state and local government web resources and services.